Regional Weather Roundup
Issued by NWS

Home | Current Version | Previous Version | Text Only | Print | Product List | Glossary On
Versions: 1 2 3 4 5 6 7 8 9 10 11 12 13 14 15 16 17 18 19 20 21 22 23 24 25 26 27 28 29 30 31 32 33 34 35 36 37 38 39 40 41 42 43 44 45 46 47 48 49 50
000
ASHW40 PHFO 261310
RWRHI

WEATHER ROUNDUP FOR HAWAII
NATIONAL WEATHER SERVICE HONOLULU HI
300 AM HST WED NOV 26 2014

THIS IS AN AUTOMATED REPORT THAT HAS NOT BEEN QUALITY CONTROLLED.

NOTE..."FAIR" INDICATES FEW OR NO CLOUDS BELOW 12,000 FEET WITH NO
SIGNIFICANT WEATHER AND/OR OBSTRUCTIONS TO VISIBILITY.

* - THESE SITES REPORT LIMITED FIELDS

HIZ001>004-261400-
KAUAI-NIIHAU-

CITY           SKY/WX    TMP DP  RH WIND       PRES   REMARKS
LIHUE APT      CLOUDY    73  55  53 NE16      30.06F
PORT ALLEN*      N/A     72 N/A N/A NE8         N/A
POIPU*           N/A     73 N/A N/A NE8G17      N/A
PRINCEVILLE*     N/A     70 N/A N/A MISG        N/A
KOKOLE POINT*  NOT AVBL
MOLOAA DAIRY*  NOT AVBL
WAIMEA HTS*    NOT AVBL
PUU OPAE*      NOT AVBL
PUU LUA*       NOT AVBL
MAKAHA RIDGE*  NOT AVBL
$$

HIZ005>011-261400-
OAHU-

CITY           SKY/WX    TMP DP  RH WIND       PRES   REMARKS
HONOLULU       PTCLDY    72  59  63 NE7       30.02F
KALAELOA       NOT AVBL
KANEOHE MCB    CLOUDY    74  60  61 NE9       30.04F
WHEELER FIELD  FAIR      62  56  83 NW6       30.04F
BELLOWS*       NOT AVBL
KAHUKU*        NOT AVBL
WHEELER*       NOT AVBL
WAIANAE HARBOR NOT AVBL
DILLINGHAM*      N/A     70  55  60 E2          N/A
KAHUKU TRN*      N/A     70  55  60 E6G15       N/A
KAWAILOA*        N/A     66  55  68 E6G12       N/A
KII*             N/A     73  57  56 NE13G18     N/A
MAKUA RANGE*     N/A     72  55  56 E8          N/A
OAHU FOREST NW NOT AVBL
SCHOFIELD BRK*   N/A     61  55  82 MISG        N/A
SCHOFIELD S*   NOT AVBL
WAIANAE VLY*   NOT AVBL
KUAOKALA*      NOT AVBL
HONOULIUULI*   NOT AVBL
MOKUOLOE IS*     N/A    N/A N/A N/A MISG        N/A
PALEHUA*       NOT AVBL
WAIAWA PHB*    NOT AVBL
$$

HIZ012>013-261400-
MOLOKAI-

CITY           SKY/WX    TMP DP  RH WIND       PRES   REMARKS
MOLOKAI AIRPT  CLEAR     70  61  73 NE9G16    30.03F
KALAUPAPA      NOT AVBL
MAKAPULAPAI*   NOT AVBL
MOLOKAI 1*     NOT AVBL
PUU ALII*      NOT AVBL
$$

HIZ016-261400-
KAHOOLAWE-

CITY           SKY/WX    TMP DP  RH WIND       PRES   REMARKS
KAHOOLAWE*     NOT AVBL
HAKIOAWA*      NOT AVBL
HONOKANAIA*      N/A     71  62  74 VRB12G21  30.02F
KANELOA*         N/A     70  63  78 NE13G23   29.24F
KEALIALALO*    NOT AVBL
LUA MAKIKA*    NOT AVBL
$$

HIZ014>015-261400-
LANAI-

CITY           SKY/WX    TMP DP  RH WIND       PRES   REMARKS
LANAI CITY       N/A    N/A N/A N/A MISG        N/A
LANAI 1*       NOT AVBL
$$

HIZ017>028-261400-
MAUI-

CITY           SKY/WX    TMP DP  RH WIND       PRES   REMARKS
KAHULUI        PTCLDY    70  62  76 NE7       30.04F
KAPALUA-W MAUI NOT AVBL
HANA AIRPORT   CLOUDY    66  64  94 CALM      30.07R
HANA*          NOT AVBL
HALEAKALA SUMM   N/A     46 -33   3 NW8G24      N/A
MAALAEA BAY*   NOT AVBL
HALEAKALA*     NOT AVBL
KAUPO GAP*     NOT AVBL
KULA 1*          N/A     52  -5   9 E3          N/A
$$

HIZ023>026-261400-
BIG ISLAND OF HAWAII COAST AND LOWER SLOPES-

CITY           SKY/WX    TMP DP  RH WIND       PRES   REMARKS
KAILUA KONA    CLEAR     72  64  76 NE6       29.96F
HILO           RAIN      64  64 100 W8        30.03F FOG
HONOKAA*       NOT AVBL
KAWAIHAE MWT*  NOT AVBL
KAWAIHAE*        N/A     73 N/A N/A NE5         N/A
SOUTH POINT*   NOT AVBL
UPOLU AIRPORT* NOT AVBL
KAMUELA*       MOSUNNY   61  59  94 NE15      30.09F FOG
HAKALAU*         N/A     46  46 100 W2          N/A
KALOKO-HONOKO* NOT AVBL
PALI 2*          N/A     63  59  88 N13G22      N/A
KEALAKOMO*       N/A     75  64  69 N18G35      N/A
KAUPULEHU*     NOT AVBL
KAPAPALA*        N/A     60  58  93 CALM        N/A
LOWER KAHUKU*  NOT AVBL
PUHE CS*       NOT AVBL
PUHO CS*       NOT AVBL
PTA KEAMUKU*     N/A     55  52  88 CALM        N/A
WAIKOLOA*      NOT AVBL
$$

HIZ027>028-261400-
BIG ISLAND OF HAWAII INTERIOR AND SUMMMITS-

CITY           SKY/WX    TMP DP  RH WIND       PRES   REMARKS
BRADSHAW FIELD CLOUDY    43  26  51 SE6       30.31F
MK VISITOR CEN NOT AVBL
MAUNA KEA*       N/A     37 -15  10 N10         N/A
MAUNA LOA*       N/A     43 -20   6 MISG        N/A
MAUNA LOA 1*   NOT AVBL
PTA KIPUKA*      N/A    N/A N/A N/A E7          N/A
PTA RANGE 17*    N/A     52  48  87 E7G15       N/A
PTA WEST*        N/A     54  46  76 SE10        N/A
NENE CABIN*    NOT AVBL
AHUMOA*        NOT AVBL
PTA PORTABLE*  NOT AVBL
PUU MALI*      NOT AVBL
$$

HIC003-261400-
NORTHWEST ISLANDS-

CITY           SKY/WX    TMP DP  RH WIND       PRES   REMARKS
MIDWAY ISLAND  MOCLDY    73  68  83 S7        30.13F
MIDWAY NOS*    NOT AVBL
FRENCH FRIGATE NOT AVBL
$$

PHZ110>124-180-261400-
BUOY REPORTS

STATION/POSITION TIME  TEMP    WIND        PRES    WAVE   SWELL
                       AIR SEA DIR/SP/G            HT/PER HT/DIR
                 (UTC) (F)     (DEG/KT/KT) (MB)    (FT/S) (FT/D)
BUOY 51001       NOT AVBL
BUOY 51101       1300   72 77   40/ 12/ 16 1020.0F   8/12   8/310
BUOY 51100       1300   72 77   50/ 12/ 16 1017.8F
BUOY 51003       1200   77 80   50/ 16/ 19 1015.7F   9/ 9   7
BUOY 51004       1208   78 80   60/ 16/ 17 1013.1F   9/11   8/340
BARBERS PT BUOY  NOT AVBL
WAIMEA BAY BUOY  1300      79                N/A     8/13
KAILUA BAY BUOY  1300      79                N/A     7/11   3/ 20
LANAI BUOY       1200      79                N/A     3/13   2/290
BARBERS PT 2     1300      78                N/A     4/13   3/310
PAUWELA MAUI     1300      78                N/A     8/10
HILO             1300      79                N/A     8/ 9   3/ 20
KANEOHE BAY BUOY 1300      78                N/A     7/11   3/350
HANALEI KAUAI    NOT AVBL
KAHULUI HARBOR   1300   73 78   10/  7/  9 1017.0F
HONOLULU HARBOR  1300   73     120/  4/  7 1016.9F
KILO NALU        NOT AVBL
HILO HARBOR      1300   69     250/  7/  8 1016.3F
MOKUOLOE         1300      76              1017.3F
NAWILIWILI       1300      79                N/A
WHOTS BUOY       NOT AVBL
BUOY 51028       NOT AVBL
$$

......................KEY........................................
  SKY/WX - SKY CONDITIONS/PRESENT WEATHER
  TMP    - TEMPERATURE IN FAHRENHEIT
  DWPT   - DEWPOINT IN FAHRENHEIT
  RH     - RELATIVE HUMIDITY IN PERCENT
  WIND   - DIRECTION AND SPEED /MPH FOR ISLANDS...KTS FOR BUOYS/
  PRES   - MEAN SEA LEVEL PRESSURE IN INCHES OF HG
  VSB    - VISIBILITY IN MILES
  HX     - HEAT INDEX
  WCI    - WIND CHILL INDEX
  VRB    - VARIABLE WIND DIRECTION
  N/A    - NOT AVAILABLE



USA.gov is the U.S. government's official web portal to all federal, state and local government web resources and services.